This demonstration page uses our WeatherBlox Daily Observations layout. Learn more.

Left ArrowRight Arrow

Hourly Observations for November 12, 2022

Temp ( °F °C ) Dew Point ( °F °C ) Humidity (%) Winds ( mph kmh ) Pressure ( in mb ) Visibility ( mi km ) Precip ( " mm )
12:55 am 00:55 Cloudy 24 -4.6 13 -10.4 64 64 NW 12 19 30.29 1026 10 16 0.00 0.00
1:25 am 01:25 Cloudy 23 -5 14 -10 68 68 NW 13 20 30.29 1026 10 16 0.00 0.00
1:55 am 01:55 Cloudy 23 -4.8 13 -10.6 64 64 NW 13 20 30.31 1026 10 16 0.00 0.00
2:55 am 02:55 Cloudy 23 -5.1 13 -10.7 65 65 NW 12 19 30.32 1027 10 16 0.00 0.00
3:55 am 03:55 Cloudy 23 -5.1 13 -10.5 66 66 NW 16 26 30.32 1027 10 16 0.00 0.00
4:55 am 04:55 Cloudy 22 -5.4 13 -10.6 67 67 NNW 10 17 30.32 1027 10 16 0.00 0.00
5:03 am 05:03 Cloudy with Light Snow Showers 23 -5 12 -11 63 63 N 10 17 30.32 1027 10 16 0.00 0.00
5:16 am 05:16 Cloudy 23 -5 12 -11 63 63 N 12 19 30.32 1027 10 16 0.00 0.00
5:55 am 05:55 Cloudy 22 -5.6 13 -10.4 69 69 WNW 12 19 30.32 1027 10 16 0.01 0.13
6:34 am 06:34 Cloudy with Light Snow 23 -5 14 -10 68 68 NW 9 15 30.34 1027 10 16 0.00 0.00
6:55 am 06:55 Cloudy with Light Snow 22 -5.7 13 -10.5 69 69 NNW 12 19 30.34 1028 10 16 0.00 0.00
7:55 am 07:55 Cloudy 21 -6.3 11 -11.6 66 66 NW 15 24 30.37 1029 10 16 0.00 0.00
8:55 am 08:55 Cloudy with Light Snow 21 -5.9 12 -11.2 66 66 WNW 13 20 30.39 1029 10 16 0.00 0.00
9:10 am 09:10 Cloudy 21 -6 12 -11 68 68 WNW 10 17 30.39 1029 10 16 0.00 0.00
9:55 am 09:55 Cloudy with Light Snow 22 -5.3 12 -11.1 64 64 WNW 14 22 30.39 1029 10 16 0.00 0.00
10:55 am 10:55 Cloudy with Light Snow 24 -4.7 12 -11.3 60 60 WNW 12 19 30.39 1029 10 16 0.00 0.00
11:55 am 11:55 Cloudy 25 -3.9 11 -11.4 56 56 WNW 9 15 30.38 1029 10 16 0.01 0.13
12:55 pm 12:55 Cloudy 27 -2.9 12 -11.2 53 53 WNW 10 17 30.37 1028 10 16 0.00 0.00
1:55 pm 13:55 Cloudy 28 -2.4 12 -10.9 52 52 WNW 10 17 30.36 1028 10 16 0.00 0.00
2:55 pm 14:55 Mostly Cloudy 29 -1.8 12 -10.9 50 50 W 10 17 30.37 1028 10 16 0.00 0.00
3:55 pm 15:55 Mostly Cloudy 29 -1.6 12 -10.9 49 49 WNW 13 20 30.38 1029 10 16 0.00 0.00
4:55 pm 16:55 Mostly Sunny 28 -2.5 13 -10.8 53 53 WNW 6 9 30.38 1029 10 16 0.00 0.00
5:55 pm 17:55 Partly Cloudy 25 -4.1 13 -10.7 60 60 WNW 5 7 30.39 1029 10 16 0.00 0.00
6:55 pm 18:55 Cloudy 26 -3.5 13 -10.4 59 59 NW 5 7 30.40 1029 10 16 0.00 0.00
7:55 pm 19:55 Cloudy 24 -4.5 13 -10.5 63 63 W 3 6 30.40 1030 10 16 0.00 0.00
8:55 pm 20:55 Cloudy 23 -5.1 13 -10.3 67 67 W 3 6 30.41 1030 10 16 0.00 0.00
9:55 pm 21:55 Mostly Clear 21 -6.1 13 -10.7 70 70 Calm 30.41 1030 10 16 0.00 0.00
10:55 pm 22:55 Clear 20 -6.7 13 -10.7 73 73 WNW 5 7 30.41 1030 10 16 0.00 0.00
11:55 pm 23:55 Clear 20 -6.9 12 -11.1 72 72 Calm 30.41 1030 10 16 0.00 0.00

Powered by AerisWeather